SCP
0 0 0 0 0 0 0 0 0 0 0 0 0 0 0 0 0 0 0 0 0 0 0 0 0 0 0 0 0 0 0 0 0 0 0 0 0 0
0 0 0 0 0 0 0 0 0 0 0 0 0 0 0 0 0 0 0 0 0 0 0 0 0 0 0 0 0 0 0 0 0 0 0 0 0 0
0 0 0 0 0 0 0 0 0 0 0 0 0 0 0 0 0 0 0 0 0 0 0 0 0 0 0 0 0 0 0 0 0 0 0 0 0 0
0 0 0 0 0 0 0 0 0 0 0 0 0 0 0 0 0 0 0 0 0 0 0 0 0 0 0 0 0 0 0 0 0 0 0 0 0 0
0 0 0 0 0 0 0 0 0 0 0 0 0 0 0 0 0 0 0 0 0 0 0 0 0 0 0 0 0 0 0 0 0 0 0 0 0 0
0 0 0 0 0 0 0 0 0 0 0 0 0 0 0 0 0 0 0 0 0 0 0 0 0 0 0 0 0 0 0 0 0 0 0 0 0 0
0 0 0 0 0 0 0 0 0 0 0 0 0 0 0 0 0 0 0 0 0 0 0 0 0 0 0 0 0 0 0 0 0 0 0 0 0 0
0 0 0 0 0 0 0 0 0 0 0 0 0 0 0 0 0 0 0 0 0 0 0 0 0 0 0 0 0 0 0 0 0 0 0 0 0 0
0 0 0 0 0 0 0 0 0 0 0 0 0 0 0 0 0 0 0 0 0 0 0 0 0 0 0 0 0 0 0 0 0 0 0 0 0 0
0 0 0 0 0 0 0 0 0 0 0 0 0 0 0 0 0 0 0 0 0 0 0 0 0 0 0 0 0 0 0 0 0 0 0 0 0 0
0 0 0 0 0 0 0 0 0 0 0 0 0 0 0 0 0 0 0 0 0 0 0 0 0 0 0 0 0 0 0 0 0 0 0 0 0 0
0 0 0 0 0 0 0 0 0 0 0 0 0 0 0 0 0 0 0 0 0 0 0 0 0 0 0 0 0 0 0 0 0 0 0 0 0 0
0 0 0 0 0 0 0 0 0 0 0 0 0 0 0 0 0 0 0 0 0 0 0 0 0 0 0 0 0 0 0 0 0 0 0 0 0 0
0 0 0 0 0 0 0 0 0 0 0 0 0 0 0 0 0 0 0 0 0 0 0 0 0 0 0 0 0 0 0 0 0 0 0 0 0 0
0 0 0 0 0 0 0 0 0 0 0 0 0 0 0 0 0 0 0 0 0 0 0 0 0 0 0 0 0 0 0 0 0 0 0 0 0 0
0 0 0 0 0 0 0 0 0 0 0 0 0 0 0 0 0 0 0 0 0 0 0 0 0 0 0 0 0 0 0 0 0 0 0 0 0 0
0 0 0 0 0 0 0 0 0 0 0 0 0 0 0 0 0 0 0 0 0 0 0 0 0 0 0 0 0 0 0 0 0 0 0 0 0 0
0 0 0 0 0 0 0 0 0 0 0 0 0 0 0 0 0 0 0 0 0 0 0 0 0 0 0 0 0 0 0 0 0 0 0 0 0 0
0 0 0 0 0 0 0 0 0 0 0 0 0 0 0 0 0 0 0 0 0 0 0 0 0 0 0 0 0 0 0 0 0 0 0 0 0 0
0 0 0 0 0 0 0 0 0 0 0 0 0 0 0 0 0 0 0 0 0 0 0 0 0 0 0 0 0 0 0 0 0 0 0 0 0 0
0 0 0 0 0 0 0 0 0 0 0 0 0 0 0 0 0 0 0 0 0 0 0 0 0 0 0 0 0 0 0 0 0 0 0 0 0 0
0 0 0 0 0 0 0 0 0 0 0 0 0 0 0 0 0 0 0 0 0 0 0 0 0 0 0 0 0 0 0 0 0 0 0 0 0 0
0 0 0 0 0 0 0 0 0 0 0 0 0 0 0 0 0 0 0 0 0 0 0 0 0 0 0 0 0 0 0 0 0 0 0 0 0 0
Wind_Speed
5 5 5 5 5 6 5 5 6 7 6 5 4 5 4 5 8 5 5 10 10 9 7 5 5 7 10 13 15 16 18 20 21 22 24 24 24 24
5 7 6 5 6 6 6 6 6 6 7 5 5 6 6 8 11 6 6 12 11 9 6 4 7 10 14 16 18 20 21 23 23 24 24 25 25 24
8 8 9 8 6 6 6 6 6 6 9 7 5 5 6 7 8 5 4 2 3 4 1 5 9 13 17 20 22 24 25 26 26 26 25 25 25 25
10 9 11 8 8 7 6 7 6 7 8 10 6 5 6 7 7 5 1 2 2 3 5 8 12 16 19 22 25 27 27 28 28 28 27 26 25 24
9 10 11 10 10 7 7 6 6 6 6 8 8 6 5 5 5 1 3 2 3 4 7 10 14 19 22 24 27 29 29 28 29 28 26 25 24 21
9 9 10 10 10 8 6 6 5 6 7 8 9 7 6 5 3 2 3 3 3 3 6 8 13 18 22 26 29 30 29 28 27 26 24 22 20 17
10 9 9 13 13 9 8 7 7 7 8 9 9 8 7 5 4 3 3 3 1 2 3 5 8 9 14 24 27 21 21 22 23 24 22 19 18 22
10 10 11 10 11 14 17 17 16 14 12 11 9 9 8 5 3 4 5 3 1 3 3 6 8 10 13 17 20 3 13 20 23 23 22 24 28 32
9 8 10 9 9 8 15 19 17 21 22 16 12 11 7 5 5 6 4 3 2 2 3 5 8 10 12 20 31 22 21 24 28 31 34 35 36 36
10 9 9 8 9 12 13 13 13 14 16 12 9 8 6 5 6 6 9 8 5 3 4 4 7 9 12 15 34 33 31 33 36 38 38 38 38 37
10 9 8 8 13 16 12 13 14 13 13 9 2 5 9 12 13 10 8 6 4 3 4 3 5 6 10 14 20 34 37 36 36 37 38 40 39 35
9 9 12 11 15 14 10 11 12 11 9 4 7 9 10 12 11 7 6 6 4 3 2 3 3 4 6 10 13 14 19 31 34 34 33 32 29 21
8 8 8 13 15 13 11 9 12 11 5 5 8 8 8 7 8 7 5 3 4 4 2 2 3 3 6 6 10 12 13 13 14 20 27 31 28 21
9 8 9 14 14 11 9 13 14 7 2 5 7 7 7 7 7 7 8 7 6 7 7 5 3 4 8 10 9 9 10 10 10 12 13 23 27 27
9 14 15 14 10 7 11 15 9 3 3 6 7 7 7 8 8 8 9 10 11 11 9 6 6 6 8 11 11 9 9 9 9 10 12 12 12 12
9 11 13 10 7 7 9 8 6 5 4 7 8 8 7 7 7 7 8 8 9 8 7 8 7 7 8 8 8 9 7 7 7 9 10 11 9 8
9 5 5 5 5 5 6 6 6 5 6 7 8 8 7 8 7 7 7 7 7 7 7 5 7 7 8 8 10 11 11 10 9 8 9 10 9 7
8 6 6 6 5 5 6 6 6 6 6 7 7 7 8 8 8 8 7 6 6 6 6 6 6 7 8 10 9 10 9 8 6 7 7 9 8 6
7 7 7 7 6 5 5 5 6 6 6 6 7 7 8 8 8 8 6 6 6 5 5 4 4 6 9 9 7 8 9 7 7 7 6 6 6 4
8 8 7 7 7 6 6 6 6 7 7 7 7 7 8 8 8 7 5 5 5 5 6 5 5 5 5 6 5 5 7 7 8 8 5 5 6 7
9 8 8 7 6 6 5 6 6 7 8 7 7 8 7 7 7 6 5 7 6 5 6 5 5 8 6 5 6 5 6 8 7 7 6 6 4 3
8 8 7 7 6 5 5 5 6 6 7 7 6 6 6 6 7 7 5 5 5 5 6 5 5 6 5 6 6 5 4 6 8 8 5 3 5 5
7 7 7 7 5 4 4 5 6 5 4 5 5 5 5 5 4 4 4 5 7 8 7 6 5 6 6 7 6 4 5 4 2 3 4 3 6 12
Wind_Direction
314 308 300 289 285 279 270 265 274 289 293 279 272 264 268 276 275 269 252 251 231 205 200 214 249 269 275 275 274 272 270 267 265 263 260 257 254 252
299 293 286 277 278 276 269 264 257 272 285 275 270 273 282 289 291 283 259 257 214 193 202 240 272 277 276 275 273 271 267 264 260 258 256 253 250 247
306 304 294 285 280 277 276 271 260 259 278 285 274 278 279 283 291 287 271 196 163 157 239 294 291 287 283 281 277 271 265 260 257 253 251 247 244 240
308 305 298 295 286 282 277 266 262 260 273 288 292 284 276 278 281 283 222 148 108 53 352 320 307 300 294 288 281 274 266 259 253 248 244 238 235 232
303 301 298 296 294 286 277 271 270 276 273 283 286 278 272 269 269 216 95 59 49 19 346 324 316 310 301 293 284 273 262 252 245 238 232 229 223 216
301 299 296 294 291 287 287 280 281 285 281 279 279 277 271 261 234 183 126 69 34 357 338 328 322 316 310 301 289 271 253 239 228 218 213 211 206 205
304 306 303 308 316 321 318 307 297 287 282 276 273 270 263 248 224 166 130 130 63 331 301 326 326 323 323 315 303 267 231 212 198 186 185 187 176 156
304 308 311 309 322 329 321 311 299 291 288 278 268 258 253 232 193 153 141 157 145 330 339 350 348 344 338 333 342 69 148 151 153 156 155 142 131 123
300 303 314 316 324 318 316 309 299 292 288 277 259 247 235 205 168 150 127 108 97 329 340 8 356 358 351 359 20 57 95 114 121 120 117 116 114 111
299 297 301 307 318 324 314 305 300 299 294 284 249 228 206 170 147 127 124 107 84 18 4 29 4 8 6 11 27 48 70 88 98 102 105 105 103 102
305 304 310 312 320 325 318 310 308 307 309 310 221 157 149 138 132 126 131 125 107 38 13 39 4 8 20 21 27 46 60 73 85 94 99 99 98 95
312 310 317 318 324 324 316 312 311 312 317 2 80 96 110 116 114 121 134 133 119 101 27 40 2 2 36 25 27 36 51 63 71 78 85 90 95 98
314 313 311 317 322 317 317 316 313 310 320 72 86 88 89 90 87 83 75 90 100 97 115 73 47 48 80 68 45 43 48 53 60 69 75 80 83 90
311 311 312 319 324 323 328 329 327 330 25 84 90 90 92 92 89 86 84 78 79 93 95 89 87 78 94 91 77 64 60 59 66 73 77 78 81 83
318 322 328 330 335 338 339 341 345 10 66 89 92 94 95 97 96 93 88 88 88 91 91 74 75 81 86 95 96 89 83 71 66 74 78 79 85 92
328 325 327 334 354 351 347 353 0 27 69 90 94 96 96 97 97 98 100 101 103 93 70 62 65 82 92 89 96 98 88 88 81 75 80 81 80 86
328 327 341 348 4 8 359 2 9 27 68 91 101 101 97 96 90 85 96 101 104 104 94 72 72 72 67 78 88 87 89 87 85 85 84 83 69 68
348 348 354 2 14 20 9 7 17 34 67 93 98 97 97 97 95 91 90 92 98 92 89 94 98 89 79 63 65 98 90 89 85 85 94 95 80 55
1 358 2 6 17 28 20 17 25 38 65 85 93 97 99 101 102 105 102 94 93 86 82 83 86 99 103 95 56 82 107 101 92 79 70 81 83 55
1 358 0 8 21 36 32 27 31 42 58 72 87 97 103 107 109 114 112 102 101 95 85 73 71 74 86 97 91 56 68 111 111 102 86 76 74 71
354 354 356 5 19 32 39 34 37 47 55 63 75 88 97 103 112 121 115 108 103 100 96 87 92 98 87 74 78 56 38 61 103 117 115 99 84 62
349 350 352 1 10 18 33 47 53 54 55 60 65 74 80 85 96 104 109 110 107 107 104 99 95 93 88 93 95 84 64 63 75 78 61 114 140 149
348 347 349 355 7 16 31 51 59 61 58 58 65 76 83 82 79 86 106 114 116 116 113 106 97 95 98 104 104 96 97 96 79 49 7 13 141 111